• In India
  • List of Countries
  • For 7 days
  • Water Temperature
  • Satellite Maps
  • Weather Map
  • Weather Widgets
  • user-avatar
    Login

    Hourly Weather Ischgl

    Today, 16 July, Monday

    Time Temperature Precipitation Wind Pressure Humidity
    00:00 +6°C° 0 mm 1 mps 576 mmHg 83%
    01:00 +6°C° 0 mm 1 mps 576 mmHg 82%
    02:00 +6°C° 0 mm 1 mps 576 mmHg 82%
    03:00 +6°C° 0 mm 1 mps 575 mmHg 82%
    04:00 +5°C° 0 mm 1 mps 575 mmHg 82%
    05:00 +7°C° 0 mm 1 mps 576 mmHg 77%
    06:00 +8°C° 0 mm 1 mps 576 mmHg 73%
    07:00 +10°C° 0 mm 1 mps 577 mmHg 68%
    08:00 +12°C° 0 mm 1 mps 578 mmHg 60%
    09:00 +13°C° 0 mm 1 mps 578 mmHg 53%
    10:00 +15°C° 0 mm 1 mps 579 mmHg 45%
    11:00 +15°C° 0.4 mm 1 mps 579 mmHg 45%
    12:00 +16°C° 0.4 mm 2 mps 579 mmHg 45%
    13:00 +16°C° 0.4 mm 2 mps 579 mmHg 45%
    14:00 +15°C° 1.1 mm 2 mps 578 mmHg 52%
    15:00 +14°C° 1.1 mm 1 mps 577 mmHg 59%
    16:00 +12°C° 1.1 mm 1 mps 576 mmHg 66%
    17:00 +12°C° 0.9 mm 1 mps 576 mmHg 71%
    18:00 +11°C° 0.9 mm 1 mps 576 mmHg 77%
    19:00 +10°C° 0.9 mm 1 mps 576 mmHg 82%
    20:00 +9°C° 0.4 mm 1 mps 575 mmHg 84%
    21:00 +8°C° 0.4 mm 1 mps 575 mmHg 86%
    22:00 +7°C° 0.4 mm 1 mps 575 mmHg 89%
    23:00 +7°C° 0 mm 1 mps 575 mmHg 90%

    Tomorrow, 17 July, Tuesday

    Time Temperature Precipitation Wind Pressure Humidity
    00:00 +6°C° 0 mm 1 mps 574 mmHg 91%
    01:00 +5°C° 0 mm 2 mps 574 mmHg 92%
    02:00 +5°C° 0.1 mm 2 mps 574 mmHg 92%
    03:00 +4°C° 0.1 mm 2 mps 574 mmHg 93%
    04:00 +4°C° 0.1 mm 2 mps 574 mmHg 94%
    05:00 +5°C° 0.2 mm 2 mps 575 mmHg 92%
    06:00 +6°C° 0.2 mm 2 mps 575 mmHg 90%
    07:00 +7°C° 0.2 mm 2 mps 576 mmHg 87%
    08:00 +8°C° 0.2 mm 2 mps 577 mmHg 81%
    09:00 +9°C° 0.2 mm 2 mps 577 mmHg 75%
    10:00 +12°C° 0.2 mm 2 mps 578 mmHg 69%
    11:00 +12°C° 0.4 mm 2 mps 578 mmHg 66%
    12:00 +12°C° 0.4 mm 3 mps 578 mmHg 63%
    13:00 +13°C° 0.4 mm 3 mps 579 mmHg 60%
    14:00 +12°C° 0.7 mm 3 mps 578 mmHg 63%
    15:00 +12°C° 0.7 mm 3 mps 578 mmHg 66%
    16:00 +12°C° 0.7 mm 3 mps 578 mmHg 70%
    17:00 +12°C° 0.5 mm 2 mps 578 mmHg 74%
    18:00 +10°C° 0.5 mm 2 mps 578 mmHg 79%
    19:00 +9°C° 0.5 mm 2 mps 577 mmHg 83%
    20:00 +7°C° 0.1 mm 2 mps 577 mmHg 87%
    21:00 +6°C° 0.1 mm 2 mps 577 mmHg 91%
    22:00 +6°C° 0.1 mm 1 mps 576 mmHg 94%
    23:00 +5°C° 0 mm 1 mps 576 mmHg 94%

    Day after tomorrow, 18 July, Wednesday

    Time Temperature Precipitation Wind Pressure Humidity
    00:00 +5°C° 0 mm 1 mps 576 mmHg 94%
    01:00 +4°C° 0 mm 1 mps 575 mmHg 94%
    02:00 +4°C° 0 mm 1 mps 575 mmHg 92%
    03:00 +4°C° 0 mm 1 mps 575 mmHg 91%
    04:00 +3°C° 0 mm 1 mps 575 mmHg 90%
    05:00 +5°C° 0 mm 1 mps 576 mmHg 86%
    06:00 +7°C° 0 mm 1 mps 577 mmHg 82%
    07:00 +8°C° 0 mm 1 mps 577 mmHg 77%
    08:00 +9°C° 0 mm 2 mps 578 mmHg 68%
    09:00 +12°C° 0 mm 2 mps 579 mmHg 59%
    10:00 +14°C° 0 mm 2 mps 580 mmHg 50%
    11:00 +15°C° 0 mm 2 mps 580 mmHg 47%
    12:00 +16°C° 0 mm 2 mps 580 mmHg 45%
    13:00 +17°C° 0 mm 2 mps 581 mmHg 42%
    14:00 +17°C° 0 mm 2 mps 580 mmHg 44%
    15:00 +16°C° 0 mm 2 mps 580 mmHg 46%
    16:00 +16°C° 0 mm 2 mps 580 mmHg 48%
    17:00 +15°C° 0.1 mm 2 mps 580 mmHg 57%
    18:00 +14°C° 0.1 mm 2 mps 579 mmHg 65%
    19:00 +13°C° 0.1 mm 2 mps 579 mmHg 74%
    20:00 +10°C° 0 mm 2 mps 578 mmHg 80%
    21:00 +9°C° 0 mm 1 mps 578 mmHg 87%
    22:00 +8°C° 0 mm 1 mps 577 mmHg 94%
    23:00 +7°C° 0 mm 1 mps 577 mmHg 94%

    19 July, Thursday

    Time Temperature Precipitation Wind Pressure Humidity
    00:00 +7°C° 0 mm 1 mps 577 mmHg 95%
    01:00 +6°C° 0 mm 1 mps 576 mmHg 95%
    02:00 +6°C° 0 mm 1 mps 576 mmHg 94%
    03:00 +5°C° 0 mm 1 mps 576 mmHg 93%
    04:00 +4°C° 0 mm 1 mps 575 mmHg 92%
    05:00 +6°C° 0 mm 1 mps 576 mmHg 84%
    06:00 +8°C° 0 mm 1 mps 577 mmHg 76%
    07:00 +9°C° 0 mm 0 mps 578 mmHg 68%
    08:00 +12°C° 0 mm 1 mps 579 mmHg 58%
    09:00 +14°C° 0 mm 1 mps 580 mmHg 47%
    10:00 +16°C° 0 mm 1 mps 581 mmHg 37%
    11:00 +18°C° 0 mm 1 mps 581 mmHg 36%
    12:00 +18°C° 0 mm 1 mps 581 mmHg 35%
    13:00 +18°C° 0 mm 2 mps 581 mmHg 35%
    14:00 +18°C° 0.2 mm 2 mps 581 mmHg 38%
    15:00 +18°C° 0.2 mm 2 mps 581 mmHg 41%
    16:00 +18°C° 0.2 mm 2 mps 581 mmHg 43%
    17:00 +16°C° 0.4 mm 2 mps 580 mmHg 54%
    18:00 +15°C° 0.4 mm 2 mps 579 mmHg 64%
    19:00 +13°C° 0.4 mm 1 mps 579 mmHg 74%
    20:00 +12°C° 0.2 mm 1 mps 578 mmHg 79%
    21:00 +10°C° 0.2 mm 1 mps 577 mmHg 83%
    22:00 +9°C° 0.2 mm 1 mps 577 mmHg 88%
    23:00 +8°C° 0 mm 1 mps 577 mmHg 87%

    20 July, Friday

    Time Temperature Precipitation Wind Pressure Humidity
    00:00 +8°C° 0 mm 1 mps 576 mmHg 86%
    01:00 +7°C° 0 mm 2 mps 576 mmHg 85%
    02:00 +7°C° 0 mm 2 mps 576 mmHg 84%
    03:00 +7°C° 0 mm 2 mps 576 mmHg 84%
    04:00 +7°C° 0 mm 2 mps 576 mmHg 83%
    05:00 +8°C° 0 mm 2 mps 576 mmHg 80%
    06:00 +10°C° 0 mm 1 mps 577 mmHg 77%
    07:00 +12°C° 0 mm 1 mps 577 mmHg 74%
    08:00 +13°C° 0.1 mm 1 mps 578 mmHg 69%
    09:00 +14°C° 0.1 mm 1 mps 578 mmHg 64%
    10:00 +15°C° 0.1 mm 1 mps 579 mmHg 59%
    11:00 +15°C° 0.8 mm 2 mps 578 mmHg 61%
    12:00 +15°C° 0.8 mm 2 mps 578 mmHg 63%
    13:00 +16°C° 0.8 mm 2 mps 578 mmHg 65%
    14:00 +15°C° 1.8 mm 2 mps 578 mmHg 70%
    15:00 +14°C° 1.8 mm 2 mps 577 mmHg 76%
    16:00 +13°C° 1.8 mm 2 mps 577 mmHg 82%
    17:00 +12°C° 1.7 mm 2 mps 577 mmHg 85%
    18:00 +11°C° 1.7 mm 1 mps 576 mmHg 89%
    19:00 +10°C° 1.7 mm 1 mps 576 mmHg 92%
    20:00 +10°C° 1.4 mm 1 mps 576 mmHg 92%
    21:00 +9°C° 1.4 mm 1 mps 576 mmHg 93%
    22:00 +9°C° 1.4 mm 1 mps 576 mmHg 93%
    23:00 +8°C° 0.4 mm 1 mps 575 mmHg 92%

    21 July, Saturday

    Time Temperature Precipitation Wind Pressure Humidity
    00:00 +8°C° 0.4 mm 1 mps 575 mmHg 92%
    01:00 +8°C° 0.4 mm 1 mps 575 mmHg 91%
    02:00 +8°C° 0.5 mm 1 mps 575 mmHg 91%
    03:00 +8°C° 0.5 mm 1 mps 575 mmHg 91%
    04:00 +7°C° 0.5 mm 1 mps 575 mmHg 90%
    05:00 +8°C° 0.3 mm 1 mps 575 mmHg 89%
    06:00 +9°C° 0.3 mm 1 mps 575 mmHg 87%
    07:00 +9°C° 0.3 mm 1 mps 576 mmHg 85%
    08:00 +10°C° 0.3 mm 1 mps 576 mmHg 80%
    09:00 +11°C° 0.3 mm 1 mps 577 mmHg 76%
    10:00 +12°C° 0.3 mm 1 mps 577 mmHg 71%
    11:00 +13°C° 0.7 mm 1 mps 577 mmHg 69%
    12:00 +13°C° 0.7 mm 1 mps 578 mmHg 67%
    13:00 +14°C° 0.7 mm 2 mps 578 mmHg 65%
    14:00 +14°C° 1.3 mm 2 mps 578 mmHg 66%
    15:00 +14°C° 1.3 mm 2 mps 578 mmHg 68%
    16:00 +14°C° 1.3 mm 2 mps 577 mmHg 69%
    17:00 +13°C° 1.5 mm 1 mps 577 mmHg 75%
    18:00 +11°C° 1.5 mm 1 mps 577 mmHg 82%
    19:00 +10°C° 1.5 mm 1 mps 576 mmHg 89%
    20:00 +10°C° 1.1 mm 1 mps 576 mmHg 90%
    21:00 +9°C° 1.1 mm 1 mps 576 mmHg 92%
    22:00 +8°C° 1.1 mm 1 mps 576 mmHg 94%
    23:00 +8°C° 0.3 mm 1 mps 576 mmHg 94%
    Show more